Tracking 22836 objects as of 17-Apr-2021
HD Live streaming from Space Station
objects crossing your sky now

ELEKTRON 3

Track ELEKTRON 3 now!
10-day predictions
ELEKTRON 3 is classified as:


NORAD ID: 829
Int'l Code: 1964-038A
Perigee: 420.3 km
Apogee: 6,160.8 km
Inclination: 60.8 °
Period: 157.5 minutes
Semi major axis: 9661 km
RCS: 2.8255 m2 (large)
Launch date: July 10, 1964
Source: Commonwealth of Independent States (former USSR) (CIS)
Launch site: TYURATAM MISSILE AND SPACE COMPLEX (TTMTR)
aabbcc
Your satellite tracking list
Your tracking list is empty




NASA's NSSDC Master Catalog

Two Line Element Set (TLE):
1 00829U 64038A   21107.53097668 -.00000006  00000-0  14879-4 0  9995
2 00829  60.8127 275.9688 2970815 206.9560 134.0360  9.14187435842373
Source of the keplerian elements: AFSPC